Hub


Voltar

 INFORMAÇÕES METEOROLÓGICAS

METAR FOR PAOH


ADDS - METARS form results

(1324 UTC 27 June 2019)
Data provider http://aviationweather.gov/metar/data/
 
METAR text: PAOH 271256Z AUTO 00000KT 10SM CLR 10/09 A3001 RMK AO2 SLP161 T01000094
Conditions at: PAOH (HOONAH , AK, US) observed 1256 UTC 27 June 2019
Temperature: 10.0°C (50°F)
Dewpoint: 9.4°C (49°F) [RH = 96%]
Pressure (altimeter): 30.01 inches Hg (1016.3 mb)
[Sea-level pressure: 1016.1 mb]
Winds: calm
Visibility: 10 or more miles (16+ km)
Ceiling: at least 12,000 feet AGL
Clouds: sky clear below 12,000 feet AGL
Weather: automated observation with no human augmentation;
there may or may not be significant weather present at this time


 MAPA DO AEROPORTO


 INFORMAÇÕES DA PISTA

Pista 06 Tamanho da pista 2997 ft Largura da pista 75 ft
Elevação da pista 15 ft Ranhura da pista 0 ft Proa da pista 78
Pista 24 Tamanho da pista 2997 ft Largura da pista 75 ft
Elevação da pista 19 ft Ranhura da pista 0 ft Proa da pista 258

 FREQUÊNCIAS DO AEROPORTO


 AUXÍLIOS DE NAVEGAÇÃO PRÓXIMOS AO AEROPORTO

Tipo VORTAC Nome Sisters Island Frequência 114000 KHZ